• Join FlightAware (Why Join?)
  • Login
  • US Flag 
02:48PM EST


 

Airport Tracker/Info


-or-


 

Live Flight TrackerFlight Track Log ✈ N6PZ ✈ 14-Sep-2013 ✈ 6B6 - KHTO

Flight Track Log - Related Links

Times and Time Zones

All times are in EDT time to prevent confusion due to time zone crossing. See the N6PZ flight status page for this flight to view local times or setup timezone preferences in your user account.

Time Position Orientation Groundspeed Altitude Reporting Facility
EDT Latitude Longitude Course Direction KTS MPH feet Rate Location/Type
02:03PM 42.4500 -71.5333 360° North 106 122 2,300  Level KA90
02:04PM 42.4500 -71.5333 180° South 106 122 2,400 420 Climbing KA90
02:05PM 42.4167 -71.5333 180° South 123 142 2,900 300 Climbing KA90
02:06PM 42.3833 -71.5333 180° South 125 144 3,000 180 Climbing KA90
02:07PM 42.3406 -71.5244 171° South 148 170 3,300 480 Climbing Boston Center
02:08PM 42.3111 -71.5025 151° Southeast 133 153 4,000 720 Climbing Boston Center
02:09PM 42.2775 -71.4806 154° Southeast 130 150 4,800 660 Climbing Boston Center
02:10PM 42.2419 -71.4558 153° Southeast 137 158 5,400 540 Climbing Boston Center
02:11PM 42.2044 -71.4508 174° South 170 196 5,900 660 Climbing Boston Center
02:12PM 42.1983 -71.4956 260° West 114 131 6,700 720 Climbing Boston Center
02:13PM 42.1967 -71.5461 267° West 119 137 7,500 600 Climbing Boston Center
02:14PM 42.1972 -71.5853 271° West 117 135 8,000 300 Climbing Boston Center
02:15PM 42.1994 -71.6331 274° West 145 167 8,100  Climbing Boston Center
02:15PM 42.1956 -71.6556 257° West 155 178 8,000 -120 Descending Boston Center
02:16PM 42.1814 -71.7144 252° West 154 177 8,000  Level Boston Center
02:17PM 42.1669 -71.7678 250° West 154 177 8,000  Level Boston Center
02:18PM 42.1403 -71.8158 233° Southwest 168 193 8,000  Level Boston Center
02:19PM 42.1028 -71.8244 190° South 164 189 8,000  Level Boston Center
02:20PM 42.0569 -71.8417 196° South 164 189 8,000  Level Boston Center
02:21PM 42.0133 -71.8533 191° South 161 185 8,000  Level Boston Center
02:22PM 41.9592 -71.8706 193° South 161 185 8,000  Level Boston Center
02:23PM 41.9217 -71.8819 193° South 162 186 8,000  Level Boston Center
02:24PM 41.8678 -71.8992 193° South 164 189 8,000  Level Boston Center
02:25PM 41.8281 -71.9108 192° South 165 190 8,000  Level Boston Center
02:26PM 41.7844 -71.9278 196° South 160 184 8,000  Level Boston Center
02:27PM 41.7344 -71.9450 194° South 165 190 8,000  Level Boston Center
02:28PM 41.6908 -71.9564 191° South 161 185 8,000  Level Boston Center
02:30PM 41.6450 -71.9733 195° South 165 190 8,000  Level Boston Center
02:31PM 41.6056 -71.9875 195° South 156 180 8,000  Level Boston Center
02:31PM 41.5681 -71.9961 190° South 161 185 8,000  Level Boston Center
02:32PM 41.5264 -72.0103 194° South 159 183 8,000  Level Boston Center
02:33PM 41.4806 -72.0189 188° South 161 185 8,000 -180 Level Boston Center
02:34PM 41.4389 -72.0275 189° South 156 180 7,700 -600 Descending Boston Center
02:35PM 41.3869 -72.0417 192° South 185 213 6,900 -780 Descending Boston Center
02:36PM 41.3328 -72.0558 191° South 185 213 6,200 -300 Descending Boston Center
02:38PM 41.2333 -72.0833 192° South 166 191 6,000 -360 Descending New York TRACON
02:39PM 41.1833 -72.1000 194° South 186 214 5,100 -900 Descending New York TRACON
02:41PM 41.1559 -72.1471 201° Southwest  Level FlightAware Approximate
02:48PM 40.9594 -72.2517 217° Southwest  Level Estimated
02:49PM 40.9594 -72.2517 56° Northeast  Level Estimated
02:50PM 40.9594 -72.2517 172° South  Level Estimated
02:51PM 40.9594 -72.2517 56° Northeast  Level Estimated